{"data":{"norad_id":62565,"intl_designator":"2025-006M","name":"STARLINK-11523 [DTC]","alt_names":[],"object_type":"PAYLOAD","status":"ACTIVE","operator":null,"country":"US","launch_date":"2025-01-10","launch_site_code":"AFETR","launch_vehicle":null,"mission":null,"orbit_class":"UNKNOWN","rcs_meters":null,"size_class":null,"mass_kg":null,"dimensions":null,"purposes":["comms"],"wikipedia_slug":null,"has_3d_model":false,"image_url":null,"decayed_at":null,"tle_current":{"epoch":"2026-05-25T00:20:28.032576Z","epoch_age_seconds":77791,"freshness":"FRESH","line1":"1 62565U 25006M   26145.01421334  .00201086  00000+0  15312-2 0  9993","line2":"2 62565  43.0015  40.0698 0002931 271.1870  88.8662 15.70865305 78606","mean_motion":15.70865305,"eccentricity":0.0002931,"inclination_deg":43.0015,"raan_deg":40.0698,"arg_perigee_deg":271.187,"mean_anomaly_deg":88.8662,"bstar":0.0015312,"rev_number":7860,"period_min":91.669221760551,"perigee_km":354.44883665492,"apogee_km":358.39663557223,"semimajor_km":6734.5597361136,"source":"CELESTRAK","updated_at":"2026-05-25T13:38:19.708872Z"}}}